Location: Huberhof
(49.2050°N, 7.4980°E)
Time: 04:46:48
(UTC+00:00)

Aureole 3 Rocket - Pass Details

Date: 29 October 2020
Orbit: 399 x 1739 km, 82.5° (Epoch: 25 November)

Event Time Altitude Azimuth Distance (km) Brightness Sun altitude
Rises 18:06:06 0° 207° (SSW) 2,726 6.7 -18.9°
Reaches altitude 10° 18:08:02 10° 214° (SSW) 1,966 6.0 -19.2°
Maximum altitude 18:12:14 48° 289° (WNW) 986 4.5 -19.9°
Drops below altitude 10° 18:18:05 10° 3° (N) 2,741 6.3 -20.9°
Sets 18:21:13 0° 9° (N) 3,935 7.1 -21.4°
